CAPE
1128 1459 1899 1954 1869 1596 1551 1472 1557 1619 1160 950 845 1133 1235 1401 1417 1706 1639 1472 1581 1407 1275 1114 944 695 872 909 859 876 928 1127 1133 934 1020 1083 1011 732 716 778 327 446 582
1524 1792 1749 1684 1731 1576 1651 1672 1768 1766 1260 804 761 965 1222 1531 1373 1617 1638 1609 1459 1427 1242 1136 1050 1027 1010 1160 1188 860 1026 1490 1290 1112 1260 1041 851 658 609 610 367 578 582
1617 1923 2015 1759 1739 1722 1531 1646 1700 1699 1507 931 846 1074 1128 1271 1282 1469 1505 1633 1291 1251 862 847 808 1049 980 1045 1159 846 1220 1434 1318 1132 1046 558 592 627 607 652 591 634 584
2052 1986 2038 1906 1995 1960 1740 1790 1927 1801 1550 845 757 1163 1093 1114 1039 1373 1822 1491 1475 1271 1000 626 778 949 930 1056 1101 1217 953 1267 1432 583 709 279 271 899 916 881 751 691 653
2170 1945 2185 2039 2197 2125 1960 2039 2123 1930 1652 1072 922 1342 1358 1196 1241 1442 1487 1126 1223 1318 934 958 991 930 1022 1100 1346 1112 549 1396 829 474 578 384 227 1023 1074 911 781 686 654
1583 2286 2071 2132 2410 2329 2119 1931 2071 1943 1681 1478 1305 1615 1701 1534 1587 1369 1138 1311 981 1230 1241 906 621 1018 1138 1299 1288 1272 472 939 805 819 682 470 466 1101 940 750 644 645 598
2372 2429 1962 1787 2457 2399 2229 2017 2028 2193 2035 1841 2015 1998 2021 1939 1793 1327 1568 1432 1420 1324 1246 1334 636 1223 931 1296 1353 1041 383 496 866 363 426 735 645 929 885 756 814 768 443
2782 2666 2333 2234 2308 2606 2551 2533 2518 2546 2637 2459 2654 2495 2349 2134 1767 2010 1435 1303 1105 1156 1448 1126 1027 1217 1109 1300 1384 954 400 481 693 563 875 1117 754 909 1058 1011 940 787 197
3068 2817 2383 2518 2562 2714 2725 2625 2856 2834 2839 2687 2669 2562 2351 1968 1854 1916 1716 1178 1184 1347 1093 1177 1173 1235 1053 1224 1142 841 368 375 821 776 991 670 595 1053 1165 995 863 891 484
2720 3168 2672 2567 2609 2576 2747 2530 2288 2598 2513 2401 2422 2159 1872 1879 2067 1963 1717 1680 1383 1207 973 878 1246 1337 1084 1040 932 790 553 329 436 647 900 524 889 1170 849 927 992 723 749
2792 2931 2923 2770 2629 2584 2404 2331 2135 2076 1817 1594 1888 1943 2192 1898 1745 1671 1553 1463 1209 1240 1098 928 941 982 1213 1056 942 713 373 97 109 443 613 353 688 1108 1164 1014 825 682 688
2539 2692 2658 2379 2343 2026 2162 1976 1868 1788 1993 2202 2168 2244 1834 1360 1581 1682 1592 1504 1177 1112 1031 1056 1165 855 861 894 792 664 419 242 336 636 207 51 154 948 1105 1178 789 902 820
2240 2223 2471 2434 2301 2312 1942 1657 1903 1869 1768 1562 1240 1089 1540 1555 1366 1247 1243 1309 1072 1266 968 1118 1389 982 721 673 618 454 323 500 474 753 429 321 187 819 1019 1089 977 771 697
1962 2181 2463 2468 2262 1882 1835 1458 1360 1960 1896 1076 1105 1234 690 366 221 1009 1261 1307 1149 1418 1415 1282 1308 1158 953 630 542 529 571 687 746 553 498 183 261 642 1120 1230 971 909 897
1568 1790 1856 2327 2265 2184 1845 1030 871 1642 1771 1638 1258 708 179 23 345 906 1040 1162 1440 1151 1519 766 928 689 680 702 589 662 710 661 441 611 262 189 209 440 988 1370 1225 1130 1012
1237 1482 2096 2223 2304 2166 1851 1877 1519 1497 1142 819 1205 1065 388 499 1071 1354 1093 446 1098 1139 800 809 782 1047 697 760 559 624 805 754 731 847 488 745 159 393 1402 1192 1073 1046 1081
1656 1765 2123 2325 2368 2344 2241 2142 1658 1198 830 1177 1091 980 593 616 578 904 724 719 835 1106 824 684 922 718 547 673 546 557 681 646 902 515 678 796 348 376 985 1594 1200 628 503
1912 1925 2310 2154 2282 2515 2436 2225 1707 1198 1045 910 450 651 1139 1057 841 1090 779 714 810 954 691 525 615 663 532 923 726 607 633 624 954 756 684 641 720 609 659 1136 960 597 565
2279 2194 2290 2398 2459 2539 2457 1880 1498 1082 872 854 756 757 1030 1033 1079 837 919 681 571 708 1121 712 298 511 758 634 406 449 483 520 490 788 791 602 609 699 678 336 242 266 569
2094 2394 2451 2344 2286 2533 2191 1829 1443 1196 1016 851 519 732 827 801 654 765 873 698 461 306 829 799 453 237 392 495 316 402 473 523 1067 684 691 532 736 412 723 495 248 154 221
2197 2534 2626 2449 2272 1920 1805 1317 955 849 782 940 714 580 786 457 582 592 728 555 427 438 479 652 435 255 462 540 488 306 280 369 825 913 432 462 341 605 368 233 189 112 177
2529 2615 2722 2342 2145 1785 1383 1107 992 1054 879 644 739 460 167 357 415 628 508 811 621 332 437 462 388 214 346 395 297 166 119 293 643 739 701 584 327 462 349 235 164 86 216
2824 2797 2741 2227 1820 1667 1372 1120 1068 969 400 326 168 171 221 134 298 460 460 584 431 480 364 502 514 236 212 367 337 238 120 144 283 317 313 382 285 348 453 280 278 232 282
2926 2802 2742 2283 2195 1779 1263 967 833 625 136 195 122 113 121 199 374 302 408 516 725 656 382 737 614 333 217 185 197 253 330 333 116 220 149 219 284 261 332 447 287 359 428
2504 2590 2547 2142 2183 1851 1591 824 742 184 73 181 79 136 428 332 381 367 357 403 650 729 444 394 582 553 236 123 173 172 230 344 195 89 62 35 228 270 286 283 365 378 384
1773 1858 2356 1937 1734 1479 1094 874 567 448 446 442 441 425 420 474 508 393 320 500 597 650 449 322 433 637 245 176 187 144 175 122 140 159 88 152 143 329 477 468 537 392 441
CIN
-68 -102 -58 -30 -58 -59 -45 -36 -33 -24 -53 -57 -49 -36 -27 -16 -11 0 -1 -1 0 0 0 -1 -9 -21 -11 -19 -19 -18 -18 -12 -5 -17 -13 -7 -2 -12 -12 -8 -10 -13 -3
-69 -96 -86 -70 -67 -65 -41 -30 -21 -22 -40 -60 -57 -38 -25 -6 -8 0 0 0 0 0 -1 0 -2 -4 -4 -3 -3 -10 -10 0 -1 -7 -1 -1 -4 -5 -5 -4 -22 -3 0
-44 -113 -79 -87 -68 -45 -36 -24 -22 -22 -26 -43 -48 -28 -21 -13 -9 0 0 0 -2 0 -6 -10 -10 -3 -5 -2 -1 -7 -5 -2 -8 -16 -10 -14 -8 -7 -1 -5 -17 -2 0
-34 -89 -75 -79 -49 -36 -40 -29 -24 -18 -16 -37 -42 -24 -22 -8 -13 -4 0 -2 0 0 -4 -16 -11 -4 -4 -1 -4 -2 -16 -12 -3 -10 -9 -11 -5 -1 0 0 -2 0 0
-14 -34 -76 -76 -41 -33 -32 -21 -15 -18 -20 -27 -31 -12 -11 -14 -6 -1 -3 -2 0 -1 -6 -5 -3 -3 -2 -1 0 -12 -18 -7 -17 -22 -13 -10 -24 0 0 -1 0 -1 0
-7 -29 -67 -61 -28 -25 -24 -29 -17 -17 -19 -22 -21 -11 -6 -8 -3 -4 -13 -2 -4 -4 -2 -6 -15 -2 0 0 0 -6 -27 -10 -11 -2 -5 -5 -20 -3 -5 -1 0 0 -3
-36 -85 -94 -95 -36 -30 -32 -32 -23 -15 -13 -16 -7 -7 -4 -5 -4 -10 -1 -4 -2 -1 -2 -1 -14 0 0 0 -1 -13 -42 -15 -2 -21 -16 -18 -28 -14 0 0 -2 0 -4
-32 -58 -89 -78 -48 -19 -14 -13 -11 -11 -7 -6 -1 -1 -1 -5 -6 -1 -10 -10 -17 -5 -1 -2 -3 0 0 0 0 -18 -52 -38 -10 -9 -6 -27 -33 -14 0 -1 0 0 -19
-3 -38 -73 -43 -27 -9 -2 -6 -2 -5 -6 -8 -2 -1 -5 -7 -1 -1 -4 -20 -22 -6 -9 -3 -3 0 -1 0 0 -17 -57 -61 -21 -10 -22 -51 -40 -11 0 0 0 0 -1
-5 -4 -26 -18 -19 -12 0 -9 -19 -4 -9 -16 -11 -16 -32 -30 -14 -3 -7 -3 -15 -12 -16 -12 -3 0 -2 -1 -4 -20 -53 -60 -45 -4 -14 -51 -34 -8 -2 0 0 -1 0
-11 -7 -15 -5 -3 -3 -10 -18 -25 -16 -35 -52 -16 -22 -20 -28 -18 -11 -14 -3 -18 -14 -12 -16 -4 -4 -2 -1 -1 -27 -48 -69 -41 -6 -28 -50 -32 -21 0 0 -1 -3 -2
-4 -5 -18 -17 -2 -17 -9 -22 -26 -24 -13 -11 -14 -7 -5 -4 -4 -10 -1 -19 -12 -26 -16 -19 -3 -7 -6 -4 -11 -18 -40 -36 -6 -15 -50 -81 -55 -26 -8 0 -3 -1 -1
-6 -18 -15 -22 -19 -10 -3 -22 -11 -2 -23 -50 -69 -63 -22 -13 -19 -24 -22 -8 -19 -14 -32 -20 -3 -15 -27 -5 -4 -35 -40 -12 -8 -8 -37 -47 -53 -28 -16 -2 -2 -2 -1
-13 -11 -14 -13 -14 -17 -15 -9 -10 -14 -21 -82 -85 -57 -91 -101 -116 -30 -18 -14 -15 -5 -7 -8 -5 -6 -2 -10 -9 -17 -20 -10 -3 -12 -26 -55 -54 -36 -13 -1 -2 -1 -1
-10 -5 -8 -9 -6 -3 -8 -67 -53 -20 -15 -20 -60 -94 -151 -64 -103 -24 -18 -17 0 -15 -7 -30 -15 -27 -17 -14 -18 -10 -16 -32 -31 -19 -341 -40 -67 -48 -14 0 0 0 0
-60 -45 -28 -19 -9 -6 -12 -3 -3 -18 -34 -21 -5 -40 -91 -77 -29 -4 -9 -33 -15 -8 -19 -38 -23 -7 -17 -10 -23 -20 -10 -11 -14 -7 -10 -33 -61 -46 -1 -1 -1 -4 0
-47 -31 -25 -31 -22 -20 -27 -26 -22 -17 -14 -9 -8 -19 -53 -52 -37 -18 -17 -18 -17 -13 -11 -29 -33 -19 -23 -18 -29 -14 -17 -13 -6 -14 -16 -24 -50 -39 -11 -1 -2 -10 -8
-24 -24 -12 -14 -30 -21 -24 -29 -35 -32 -15 -19 -29 -5 -21 -27 -27 -3 -9 -15 -14 -13 -25 -28 -52 -33 -30 -11 -13 -17 -18 -12 -10 -5 -7 -11 -13 -29 -23 -5 -6 -11 -12
-3 -14 -5 -2 -6 -10 -4 -30 -32 -30 -24 -12 -4 -9 -18 -21 -22 -10 -1 -3 -18 -17 -17 -27 -76 -42 -22 -8 -22 -27 -16 -8 -20 -4 -5 -14 -9 -10 -23 -41 -23 -12 -9
-25 -15 -4 -2 -2 -2 -1 -5 -7 -5 -15 -11 -10 -6 -17 -20 -31 -13 -5 -3 -6 -25 -9 -31 -61 -78 -34 -10 -29 -25 -25 -14 -10 -19 -17 -9 -4 -4 -14 -32 -57 -53 -24
-13 -4 -1 -3 -2 -7 -6 -22 -26 -24 -14 -2 -5 -17 -17 -10 -8 -39 -8 -11 -6 -3 -17 -20 -50 -50 -17 -20 -21 -23 -21 -27 -11 -16 -19 -22 -15 -9 -38 -53 -82 -77 -14
-13 -8 -3 -3 -6 -9 -19 -30 -22 -12 -20 -17 -17 -28 -43 -14 -10 -7 -14 -1 -5 -24 -9 -20 -34 -57 -27 -24 -16 -28 -26 -26 -4 -5 -9 -14 -15 -13 -16 -52 -50 -49 -18
-16 -20 -12 -6 -13 -10 -13 -15 -13 -16 -27 -32 -25 -32 -40 -39 -11 -3 -9 -9 -10 -10 -17 -20 -35 -65 -55 -19 -31 -13 -31 -28 -21 -27 -24 -14 -24 -14 -11 -25 -48 -41 -18
-2 -7 -10 -27 -8 -6 -13 -14 -8 -10 -38 -21 -26 -22 -37 -21 -7 -8 -5 -11 -4 -3 -24 -11 -27 -40 -56 -41 -17 -21 -14 -17 -27 -14 -36 -49 -21 -13 -15 -14 -21 -18 -16
-2 -12 -32 -25 -12 -13 -4 -14 -3 -43 -49 -23 -30 -15 -7 -14 -17 -5 -1 -8 -2 -2 -24 -11 -15 -25 -69 -32 -24 -24 -10 -7 -20 -23 -32 -44 -37 -32 -23 -23 -19 -13 -15
-7 -14 -24 -40 -28 -17 -7 -3 -10 -2 -2 -5 -7 -6 -5 -5 -5 -5 -5 -1 -3 -6 -18 -24 -22 -22 -49 -23 -27 -21 -15 -8 -13 -8 -10 -17 -25 -30 -27 -30 -16 -22 -14
Wind_Speed
18 21 16 10 9 10 12 14 16 17 16 16 16 15 15 15 14 11 9 10 8 7 9 7 7 9 11 11 9 7 11 15 21 23 25 26 27 28 28 28 27 27 27
18 17 16 13 9 7 8 11 14 13 12 13 13 13 12 13 13 10 8 9 9 7 7 8 8 9 11 10 8 6 11 16 21 24 26 26 27 27 25 24 27 27 27
16 14 13 11 10 9 7 8 10 10 12 10 9 10 10 12 12 9 9 9 8 9 9 8 9 10 10 9 7 6 17 20 24 25 27 26 26 25 26 26 27 28 27
16 13 11 11 9 7 8 8 10 11 11 12 12 9 9 9 11 10 9 10 10 12 12 11 10 12 11 9 7 6 20 22 23 26 27 24 24 24 24 25 26 27 27
16 16 12 10 8 8 8 10 10 10 10 10 11 9 8 7 8 10 9 11 12 14 15 14 13 14 12 11 7 7 20 22 24 25 23 21 21 23 23 24 26 26 26
16 15 14 11 8 9 10 10 11 10 10 9 9 8 7 7 7 9 10 12 14 15 16 16 16 14 13 11 10 6 25 23 22 18 12 17 18 21 23 24 25 25 26
16 15 13 12 10 9 9 9 10 9 8 8 8 9 7 7 9 8 9 11 14 15 17 16 15 13 14 13 6 4 28 22 19 19 19 13 17 20 22 22 23 25 25
16 12 10 10 10 8 8 9 9 9 9 9 9 8 7 8 10 8 9 10 11 15 17 18 17 12 16 13 11 24 28 22 16 19 13 13 17 17 19 20 21 23 24
16 12 9 6 6 5 7 8 8 8 8 9 8 8 7 7 8 9 9 10 10 13 15 18 18 14 12 13 15 20 29 27 21 10 10 12 15 17 16 18 19 21 21
16 13 10 6 4 4 4 6 7 9 8 7 6 6 5 6 7 11 10 8 9 12 13 16 19 15 10 11 9 23 29 26 23 16 6 10 14 16 15 16 17 17 18
18 13 11 7 6 4 4 4 6 9 11 10 10 8 5 6 6 10 9 10 7 11 14 13 15 15 12 10 14 21 28 25 25 9 6 13 13 13 14 14 14 15 16
15 14 12 10 7 4 4 6 7 9 8 8 8 7 6 9 9 13 16 13 12 10 12 12 11 11 12 9 11 17 26 29 24 8 4 11 11 11 13 14 14 13 13
16 16 12 9 7 6 4 3 2 3 3 5 6 1 10 12 11 13 19 18 14 14 13 11 12 13 15 20 7 5 30 26 22 4 6 9 8 10 11 12 12 12 11
19 17 14 11 7 6 5 7 1 7 7 5 3 4 6 8 4 14 19 16 18 12 16 11 11 13 24 13 7 5 26 22 27 16 3 9 6 6 8 9 9 10 9
17 17 16 14 10 9 9 9 18 10 10 4 3 3 7 9 10 11 17 14 19 18 18 18 15 15 16 17 17 9 7 16 31 13 13 3 5 4 5 6 7 8 7
17 16 15 13 12 11 10 9 7 7 1 16 17 4 6 10 12 11 8 1 22 21 21 17 18 16 16 19 21 23 18 18 26 22 2 5 1 1 4 5 5 10 9
17 16 15 14 13 11 10 9 8 15 13 6 8 6 5 5 9 7 9 10 17 22 22 21 19 18 19 18 22 19 17 19 20 18 12 6 2 3 2 2 2 4 8
15 15 14 13 13 11 9 9 8 6 10 13 12 11 4 6 5 9 10 6 9 20 24 22 18 17 20 18 18 21 20 22 22 19 5 4 3 3 5 4 1 2 2
12 12 12 11 11 10 8 8 8 8 12 18 18 9 12 10 10 9 13 12 7 16 24 25 22 18 23 21 20 22 22 19 17 22 24 6 4 3 1 4 3 11 8
10 11 10 9 9 8 7 7 8 8 8 12 16 14 11 14 12 14 15 13 7 7 24 27 25 23 22 23 24 22 23 20 16 23 25 20 13 6 3 2 3 12 26
9 9 9 8 7 6 6 5 6 7 9 14 18 23 18 19 15 16 18 17 12 7 19 27 24 25 23 20 21 22 24 22 21 20 21 22 17 8 4 2 2 13 32
8 9 9 9 7 6 7 6 9 13 11 7 24 29 29 21 18 20 21 21 15 12 17 25 22 22 24 21 22 20 21 21 25 18 15 17 16 8 4 1 1 5 11
10 11 10 9 8 8 8 10 11 13 13 16 9 20 25 33 29 17 19 24 20 15 17 20 21 23 23 25 22 21 19 19 19 19 19 18 17 10 6 2 5 6 12
12 10 9 11 12 13 14 13 13 15 16 16 19 18 21 28 25 17 13 23 26 19 15 19 18 23 23 29 23 28 27 19 19 19 18 17 15 11 8 4 4 6 6
12 12 13 15 16 18 18 16 16 19 13 10 28 9 24 22 18 10 9 22 27 23 17 16 16 26 22 24 17 21 29 20 15 19 19 19 16 11 5 4 5 6 5
13 13 15 17 17 18 20 22 22 20 5 7 16 5 22 15 11 8 9 18 21 21 16 18 20 27 23 24 17 29 26 19 18 17 19 16 15 12 7 6 6 6 6
Wind_Direction
96 107 94 84 82 80 76 75 77 81 75 72 70 57 50 45 38 23 13 18 357 331 2 310 317 264 244 250 285 309 32 58 79 82 84 86 94 99 101 96 78 78 80
96 101 95 92 82 73 68 71 77 72 66 68 62 56 46 45 36 15 352 9 351 301 309 334 276 271 256 270 318 332 46 72 85 90 93 94 98 96 111 117 77 82 84
90 95 91 90 84 72 53 49 65 68 74 56 47 45 39 43 39 3 4 351 330 292 287 292 280 266 271 287 331 325 82 90 104 102 106 100 99 96 89 83 84 93 91
88 92 90 92 82 62 50 48 65 73 75 81 66 43 37 22 32 20 337 344 304 265 261 269 280 260 269 290 351 335 101 103 110 116 130 92 97 89 87 89 90 97 97
87 100 95 93 81 63 49 53 62 69 72 76 66 44 16 5 8 22 349 300 283 255 239 244 263 254 273 264 298 25 110 112 114 123 152 107 85 90 90 90 97 99 98
90 92 95 90 82 71 62 58 66 72 73 63 56 39 5 339 349 353 351 300 272 258 234 234 239 260 261 269 274 29 138 126 119 160 48 74 76 92 99 101 105 102 96
77 85 89 91 89 81 69 62 63 67 71 62 61 57 8 340 311 336 340 330 283 268 240 240 250 262 257 260 324 34 173 126 121 115 105 63 79 90 98 97 99 104 105
79 75 74 82 92 84 75 75 71 77 81 82 80 69 24 339 300 322 335 348 325 279 254 237 243 276 253 266 273 154 197 141 101 122 78 68 91 88 91 93 100 105 105
74 68 61 58 63 63 80 86 81 84 89 92 90 82 60 33 342 319 332 335 340 299 274 247 246 267 277 276 259 233 182 197 230 238 68 77 93 94 91 94 100 105 103
71 69 62 57 50 48 61 90 96 107 102 97 90 83 17 48 351 309 328 345 336 309 293 270 250 267 302 289 287 227 204 214 231 131 39 76 98 100 97 96 98 99 98
73 60 67 67 72 78 86 105 113 121 125 122 116 109 62 46 35 315 320 287 357 308 289 291 277 267 285 302 267 239 218 230 226 317 82 107 103 100 104 100 96 97 98
81 70 73 80 82 86 116 126 122 129 122 123 120 109 288 107 26 310 288 293 306 313 299 290 295 292 285 309 285 259 229 210 234 316 55 109 108 106 111 113 107 98 96
90 90 82 73 98 124 29 54 82 106 121 128 137 87 289 330 19 310 277 280 293 293 293 293 285 284 276 255 313 309 208 235 252 325 98 106 106 111 115 116 112 109 100
93 97 95 87 60 65 43 349 98 147 158 170 204 290 311 317 13 324 280 289 280 293 279 287 290 282 252 284 304 312 239 259 239 268 123 118 103 111 115 116 113 113 103
77 77 83 85 81 60 63 79 176 167 172 198 230 249 306 314 323 317 291 293 276 278 274 268 276 280 277 272 276 253 289 273 206 282 238 93 103 115 120 120 119 121 107
81 81 77 79 70 45 49 61 106 147 320 312 241 308 295 303 313 315 307 244 270 270 266 268 268 272 276 269 266 254 271 268 244 244 317 312 341 134 133 128 123 139 131
91 91 88 94 99 94 84 52 29 324 330 23 168 345 318 299 297 298 307 295 279 266 262 261 264 269 266 275 262 273 274 268 269 281 294 326 48 149 152 148 136 142 140
90 92 94 103 102 95 87 73 59 58 360 337 335 318 300 301 284 293 292 299 291 271 258 259 260 268 262 275 275 268 271 266 267 274 120 15 88 105 148 159 239 294 163
79 84 86 89 93 92 73 50 26 9 343 326 319 308 302 297 291 281 285 286 279 274 258 256 256 262 259 268 274 269 271 277 285 273 267 334 343 3 69 165 310 300 176
70 64 64 62 64 62 50 33 17 5 352 336 318 311 294 293 281 279 280 281 260 268 256 252 254 257 261 264 266 273 269 276 296 278 272 289 308 330 339 337 320 292 203
69 57 48 46 67 69 55 39 10 350 338 327 315 305 300 294 286 274 273 274 277 263 255 249 254 254 260 268 268 271 268 276 283 296 290 293 304 326 355 329 339 300 233
51 44 33 30 57 62 38 21 0 349 340 326 317 297 287 291 287 275 266 268 266 267 261 251 254 258 259 267 267 276 282 286 277 304 316 313 315 323 346 48 103 137 169
32 15 30 39 46 40 28 17 6 353 342 336 326 309 290 268 273 277 266 262 260 261 260 255 253 255 260 259 268 272 287 294 304 305 307 317 318 329 334 24 127 147 162
10 23 54 38 37 27 22 17 8 357 349 344 334 318 299 275 276 280 263 259 257 259 254 258 256 253 256 256 265 264 273 292 300 307 325 330 334 336 332 3 84 117 118
36 44 37 39 30 25 20 21 20 8 8 16 283 355 285 282 289 284 260 257 255 258 255 251 250 248 254 259 271 272 263 287 304 308 317 327 340 349 9 45 34 42 82
43 45 40 34 36 34 29 22 22 15 40 216 243 59 282 302 300 289 269 261 258 258 255 254 254 246 253 258 272 255 266 283 292 305 314 334 349 354 18 52 44 48 52